20060531,7189
20060601,7190
20060602,7143
20060605,7448
20060606,7596
20060607,7675
20060608,7711
20060609,7634
20060612,7698
20060613,7770
20060614,7534
20060615,7528
20060616,7690
20060619,8132
20060620,8127
20060621,7911
20060622,8039
20060623,8289
20060626,8335
20060627,8430
20060628,8526
20060629,8656
20060630,8757
20060703,9110
20060704,9184
20060705,9519
20060706,9498
20060707,9709
20060710,9697
20060711,9765
20060712,9761
20060713,10004
20060714,9884
20060718,9892
20060719,9986
20060720,10045
20060721,10292
20060724,10250
20060725,10286
20060726,10419
20060727,10441
20060728,10646
20060731,10713
20060801,10783
20060802,10673
20060803,11062
20060804,11367
20060807,11370
20060808,11536
20060809,11675
20060810,11985
20060811,12064
20060814,12249
20060815,12498
20060816,12465
20060817,12655
20060818,12708
20060821,12675
20060822,12597
20060823,12920
20060824,13117
20060825,13319
20060828,13433
20060829,13604
20060830,13906
20060831,14356
20060901,14632
20060904,14626
20060905,15036
20060906,15128
20060907,15168
20060908,15068
20060911,15126
20060912,15096
20060913,15197
20060914,15302
20060915,15370
20060919,15608
20060920,15657
20060921,15513
20060922,15435
20060925,15587
20060926,15425
20060927,15302
20060928,15673
20060929,15818
20061002,15938
20061003,15903
20061004,16002
20061005,16369
20061006,16587
20061010,16606
20061011,16988
20061012,17160
20061013,17264
20061016,17425
20061017,17483
20061018,17526
20061019,17665
20061020,17624
20061023,17847
20061024,17885
20061025,17849
20061026,18038
20061027,18137
20061030,17925
20061031,18107
20061101,18217
20061102,18517
20061106,19196
20061107,19699
20061108,19816
20061109,20000
20061110,20481
20061113,20484
20061114,20825
20061115,21126
20061116,21685
20061117,22005
20061120,17718
20061121,17917
20061122,18050
20061124,19677
20061127,20302
20061128,20878
20061129,20629
20061130,21697
20061201,22459
20061204,22258
20061205,22071
20061206,22601
20061207,23009
20061208,23054
20061211,23323
20061212,23774
20061213,24080
20061214,24151
20061215,25030
20061218,25466
20061219,26303
20061220,26442
20061221,27412
20061222,27831
20061225,29257
20061226,29870
20061227,29888
20061228,31436
20061229,33509
20070104,35332
20070105,34222
20070109,33665
20070110,34143
20070111,33546
20070112,33638
20070115,34355
20070116,35692
20070117,36231
20070118,36222
20070119,36871
20070122,37101
20070123,38163
20070124,37949
20070125,38383
20070126,38409
20070129,37980
20070130,38461
20070131,39356
20070201,39075
20070202,39100
20070205,39825
20070206,39939
20070207,40173
20070208,41082
20070209,41735
20070213,41949
20070214,41194
20070215,41294
20070216,41926
20070219,42379
20070220,42399
20070221,42592
20070222,43150
20070223,43937
20070226,43740
20070227,43477
20070228,41772
20070301,40829
20070302,39365
20070305,38468
20070306,36446
20070307,37563
20070308,37314
20070309,39145
20070312,39493
20070313,40335
20070314,39671
20070315,39158
20070316,39544
20070319,39553
20070320,40542
20070322,40795
20070323,41503
20070326,41755
20070327,42297
20070328,42179
20070329,41473
20070330,42488
20070402,42635
20070403,42568
20070404,43474
20070405,44480
20070406,44542
20070409,44761
20070410,44681
20070411,45250
20070412,45722
20070413,45452
20070416,45474
20070417,46415
20070418,46077
20070419,45802
20070420,44610
20070423,45399
20070424,45280
20070425,45378
20070426,45237
20070427,46017
20070501,45142
20070502,45258
20070507,46923
20070508,47325
20070509,46929
20070510,47396
20070511,47506
20070514,47018
20070515,49442
20070516,48906
20070517,49466
20070518,49634
20070521,38201
20070522,39350
20070523,40102
20070524,43147
20070525,45265
20070528,44621
20070529,47227
20070530,47952
20070531,47979
20070601,50386
20070604,51277
20070605,52277
20070606,53277
20070607,53603
20070608,54066
20070611,53913
20070612,54533
20070613,55033
20070614,55870
20070615,57252
20070618,58536
20070619,60877
20070620,60973
20070621,61524
20070622,63392
20070625,63911
20070626,63527
20070627,63329
20070628,63188
20070629,64516
20070702,64655
20070703,64622
20070704,66802
20070705,67539
20070706,68150
20070709,68642
20070710,70392
20070711,69910
20070712,69182
20070713,70103
20070717,70264
20070718,70668
20070719,69579
20070720,70138
20070723,71334
20070724,72121
20070725,72862
20070726,72780
20070727,71394
20070730,68791
20070731,69683
20070801,71167
20070802,68854
20070803,68551
20070806,67934
20070807,66064
20070808,65617
20070809,68623
20070810,67907
20070813,65611
20070814,65629
20070815,65951
20070816,63347
20070817,58355
20070820,56025
20070821,60399
20070822,62029
20070823,65353
20070824,68248
20070827,69329
20070828,73075
20070829,71912
20070830,71707
20070831,73004
20070903,75006
20070904,75367
20070905,75174
20070906,74249
20070907,74727
20070910,73059
20070911,73243
20070912,73156
20070913,73882
20070914,74492
20070918,75962
20070919,76827
20070920,79855
20070921,80159
20070925,83275
20070926,82877
20070927,83657
20070928,85848
20071001,87461
20071002,88040
20071003,92724
20071004,89622
20071005,86103
20071009,89525
20071010,90405
20071011,92623
20071012,96765
20071015,96814
20071016,100181
20071017,98286
20071018,99172
20071019,98759
20071022,97452
20071023,94059
20071024,97268
20071025,96945
20071026,97401
20071029,97612
20071030,101034
20071031,101759
20071101,101466
20071102,101112
20071105,99203
20071106,94090
20071107,94944
20071108,94766
20071109,91059
20071112,88795
20071113,83322
20071114,83071
20071115,88182
20071116,87391
20071119,85209
20071120,65156
20071121,70545
20071122,68096
20071126,71173
20071127,75732
20071128,77175
20071129,80279
20071130,84891
20071203,88312
20071204,88952
20071205,90099
20071206,93998
20071207,96068
20071210,95568
20071211,94235
20071212,95762
20071213,94216
20071214,91587
20071217,91039
20071218,88227
20071219,88974
20071220,91121
20071221,92135
20071225,98569
20071226,99207
20071227,99474
20071228,99047
20080104,91553
20080107,93845
20080108,92689
20080109,92919
20080110,96194
20080111,95424
20080115,91021
20080116,87606
20080117,82275
20080118,83362
20080121,83692
20080122,77603
20080123,70091
20080124,76251
20080125,74997
20080128,80751
20080129,77755
20080130,78682
20080131,75421
20080201,75145
20080204,78948
20080205,83447
20080206,83302
20080207,78341
20080208,79157
20080212,76042
20080213,77534
20080214,79265
20080215,82231
20080218,83834
20080219,83170
20080220,84331
20080221,82486
20080222,81994
20080225,80770
20080226,80614
20080227,80422
20080228,82500
20080229,81851
20080303,80091
20080304,77651
20080305,75205
20080306,74331
20080307,74676
20080310,71719
20080311,70608
20080312,71786
20080313,71936
20080314,67356
20080317,63774
20080318,59253
20080319,59736
20080321,58110
20080324,58197
20080325,58647
20080326,62701
20080327,62507
20080328,63113
20080331,66433
20080401,64604
20080402,66481
20080403,69399
20080404,71025
20080407,70734
20080408,72506
20080409,71352
20080410,69152
20080411,70225
20080414,71357
20080415,67665
20080416,68317
20080417,68293
20080418,70089
20080421,70399
20080422,71296
20080423,72816
20080424,74642
20080425,77908
20080428,77108
20080430,77124
20080501,76450
20080502,77027
20080507,79300
20080508,76719
20080509,74990
20080512,73091
20080513,73684
20080514,76026
20080515,76200
20080516,75686
20080519,75877
20080520,76507
20080521,74094
20080522,74367
20080523,73344
20080526,71163
20080527,68817
20080528,69972
20080529,70248
20080530,71212
20080602,71922
20080603,72530
20080604,70886
20080605,69603
20080606,69502
20080609,69610
20080610,70603
20080611,67599
20080612,66645
20080613,66133
20080616,64697
20080617,66221
20080618,66081
20080619,67131
20080620,65216
20080623,64196
20080624,63875
20080625,62934
20080626,63679
20080627,62567
20080630,60808
20080701,61259
20080702,61108
20080703,59968
20080704,58004
20080707,58202
20080708,60152
20080709,58354
20080710,60308
20080711,60921
20080714,61911
20080715,60976
20080716,57624
20080717,57570
20080718,59734
20080722,61048
20080723,61294
20080724,63259
20080725,62343
20080728,60962
20080729,60435
20080730,59745
20080731,60825
20080801,60841
20080804,61036
20080805,60036
20080806,57957
20080807,58215
20080808,58116
20080811,56955
20080812,56522
20080813,54895
20080814,54006
20080815,54874
20080818,54407
20080819,53481
20080820,51974
20080821,53520
20080822,51806
20080825,52488
20080826,53883
20080827,53586
20080828,54665
20080829,53279
20080901,53561
20080902,52491
20080903,52490
20080904,50572
20080905,48956
20080908,48544
20080909,49882
20080910,48436
20080911,46942
20080912,44747
20080916,43225
20080917,41167
20080918,38463
20080919,39041
20080922,44050
20080924,41955
20080925,42146
20080926,42031
20080929,41568
20080930,38025
20081001,39697
20081002,39551
20081003,40167
20081006,38781
20081007,35176
20081008,35087
20081009,31015
20081010,31487
20081014,34211
20081015,35258
20081016,32723
20081017,31343
20081020,30057
20081021,31831
20081022,30459
20081023,27462
20081024,26389
20081027,23499
20081028,20253
20081029,23414
20081030,24112
20081031,27722
20081104,28636
20081105,28855
20081106,29713
20081107,26928
20081110,28328
20081111,29922
20081112,28767
20081113,27985
20081114,27207
20081117,27845
20081118,27760
20081119,26420
20081120,25833
20081121,24243
20081125,25417
20081126,25826
20081127,26836
20081128,27492
20081201,27872
20081202,28067
20081203,26553
20081204,27443
20081205,27229
20081208,27907
20081209,30306
20081210,29733
20081211,31434
20081212,30877
20081215,28843
20081216,29132
20081217,29063
20081218,29715
20081219,31005
20081222,30524
20081224,28347
20081225,28030
20081226,28151
20081229,28122
20081230,28730
20090105,30899
20090106,32544
20090107,32606
20090108,30819
20090109,28641
20090113,26745
20090114,26001
20090115,26445
20090116,26028
20090119,26608
20090120,26734
20090121,25882
20090122,24701
20090123,24852
20090126,24455
20090127,24571
20090128,24476
20090129,24880
20090130,25781
20090202,26183
20090203,25329
20090204,25452
20090205,26324
20090206,27294
20090209,28456
20090210,28395
20090212,27603
20090213,27047
20090216,27995
20090217,28013
20090218,26919
20090219,27536
20090220,27903
20090223,26937
20090224,27996
20090225,27996
20090226,28549
20090227,28010
20090302,27577
20090303,26502
20090304,26918
20090305,28219
20090306,27843
20090309,27365
20090310,27414
20090311,27915
20090312,27964
20090313,28041
20090316,29355
20090317,30468
20090318,29961
20090319,29627
20090323,29350
20090324,31408
20090325,31863
20090326,31282
20090327,32892
20090330,32937
20090331,31211
20090401,32094
20090402,32078
20090403,34264
20090406,34446
20090407,35006
20090408,34855
20090409,33931
20090410,35264
20090413,35298
20090414,35307
20090415,36070
20090416,36838
20090417,36563
20090420,36164
20090421,36205
20090422,35770
20090423,34553
20090424,35432
20090427,35417
20090428,34163
20090430,35270
20090501,36904
20090507,39265
20090508,39869
20090511,40236
20090512,38762
20090513,37989
20090514,38328
20090515,37650
20090518,37808
20090519,38950
20090520,39847
20090521,39216
20090522,38677
20090525,38429
20090526,38728
20090527,38542
20090528,40811
20090529,41140
20090601,41686
20090602,44337
20090603,43082
20090604,44111
20090605,43613
20090608,45150
20090609,44323
20090610,43134
20090611,45607
20090612,45798
20090615,45863
20090616,44653
20090617,43394
20090618,43050
20090619,42611
20090622,42701
20090623,42822
20090624,41466
20090625,42779
20090626,43680
20090629,44643
20090630,44959
20090701,44576
20090702,44827
20090703,44411
20090706,44667
20090707,43995
20090708,42971
20090709,41791
20090710,42039
20090713,41703
20090714,40674
20090715,42231
20090716,43544
20090717,43501
20090721,46211
20090722,45837
20090723,45432
20090724,46634
20090727,47216
20090728,48079
20090729,48839
20090730,47479
20090731,47596
20090803,48055
20090804,49453
20090805,49140
20090806,48283
20090807,48960
20090810,48235
20090811,49404
20090812,49242
20090813,47872
20090814,48390
20090817,47808
20090818,45615
20090819,45837
20090820,44951
20090821,45784
20090824,45844
20090825,46683
20090826,46363
20090827,46257
20090828,45554
20090831,44498
20090901,44034
20090902,44084
20090903,43068
20090904,44394
20090907,45895
20090908,46735
20090909,47417
20090910,46981
20090911,47088
20090914,46686
20090915,46424
20090916,46210
20090917,47185
20090918,47906
20090924,47020
20090925,45700
20090928,44804
20090929,44489
20090930,45415
20091001,44846
20091002,44666
20091005,43806
20091006,43949
20091007,44995
20091008,45656
20091009,46100
20091013,46141
20091014,46484
20091015,47365
20091016,48115
20091019,47825
20091020,48578
20091021,48827
20091022,48886
20091023,48989
20091026,50347
20091027,50293
20091028,49217
20091029,47244
20091030,46270
20091102,46587
20091104,45790
20091105,47232
20091106,47041
20091109,47452
20091110,48399
20091111,48296
20091112,48900
20091113,48560
20091116,48380
20091117,48840
20091118,48734
20091119,48521
20091120,47777
20091124,47858
20091125,46843
20091126,46675
20091127,45297
20091130,43327
20091201,44868
20091202,45785
20091203,46806
20091204,47475
20091207,48597
20091208,47680
20091209,46857
20091210,45819
20091211,45641
20091214,46216
20091215,46459
20091216,46328
20091217,45727
20091218,44604
20091221,44385
20091222,44227
20091224,45535
20091225,45985
20091228,46106
20091229,46190
20091230,46233
20100104,47317
20100105,47109
20100106,48152
20100107,48501
20100108,48353
20100112,48020
20100113,47117
20100114,45757
20100115,45672
20100118,45317
20100119,44709
20100120,45557
20100121,44946
20100122,43338
20100125,42820
20100126,42661
20100127,40585
20100128,40592
20100129,41089
20100201,41002
20100202,41295
20100203,41344
20100204,42609
20100205,41174
20100208,39408
20100209,39019
20100210,39701
20100212,40916
20100215,41162
20100216,41109
20100217,41223
20100218,41977
20100219,42082
20100222,40952
20100223,41572
20100224,41665
20100225,41440
20100226,40779
20100301,40961
20100302,41866
20100303,41649
20100304,41513
20100305,41247
20100308,42228
20100309,43007
20100310,42980
20100311,43268
20100312,43481
20100315,43504
20100316,42765
20100317,42657
20100318,43508
20100319,43338
20100323,42518
20100324,42378
20100325,43007
20100326,43019
20100329,43457
20100330,43734
20100331,44525
20100401,44358
20100402,45368
20100405,45397
20100406,45359
20100407,45136
20100408,46008
20100409,45351
20100412,45456
20100413,44687
20100414,44333
20100415,44256
20100416,43912
20100419,42720
20100420,41905
20100421,42610
20100422,42505
20100423,42530
20100426,42605
20100427,43051
20100428,41648
20100430,41204
20100506,40023
20100507,38198
20100510,37959
20100511,39678
20100512,39724
20100513,39690
20100514,40233
20100517,39515
20100518,38459
20100519,38478
20100520,37574
20100521,36352
20100524,36265
20100525,37004
20100526,35122
20100527,35796
20100528,36862
20100531,37627
20100601,37497
20100602,36849
20100603,36853
20100604,37795
20100607,37128
20100608,36463
20100609,36404
20100610,36459
20100611,36698
20100614,37166
20100615,37506
20100616,37397
20100617,37219
20100618,37298
20100621,37325
20100622,38760
20100623,38262
20100624,38011
20100625,37682
20100628,37325
20100629,37296
20100630,35935
20100701,35954
20100702,35621
20100705,35035
20100706,34525
20100707,35197
20100708,34983
20100709,35372
20100712,36279
20100713,36329
20100714,36200
20100715,35931
20100716,34870
20100720,34286
20100721,34713
20100722,34978
20100723,35262
20100726,35803
20100727,35253
20100728,35754
20100729,35676
20100730,35318
20100802,35248
20100803,35812
20100804,35226
20100805,35597
20100806,35223
20100809,35021
20100810,35335
20100811,34373
20100812,33353
20100813,32903
20100816,32813
20100817,32681
20100818,32722
20100819,32642
20100820,32631
20100823,32568
20100824,32123
20100825,31505
20100826,31392
20100827,31153
20100830,31534
20100831,31378
20100901,30984
20100902,31216
20100903,31579
20100906,31841
20100907,32202
20100908,32023
20100909,31576
20100910,31794
20100913,31826
20100914,32107
20100915,32832
20100916,32889
20100917,32787
20100921,33187
20100922,32861
20100924,32696
20100927,32641
20100928,32905
20100929,32587
20100930,33041
20101001,32937
20101004,32859
20101005,33367
20101006,32984
20101007,33143
20101008,32758
20101012,32999
20101013,32644
20101014,33135
20101015,33601
20101018,33323
20101019,32854
20101020,33272
20101021,32626
20101022,32954
20101025,32688
20101026,32716
20101027,32934
20101028,32195
20101029,31852
20101101,31678
20101102,32436
20101104,33234
20101105,33279
20101108,33657
20101109,33703
20101110,33524
20101111,33224
20101112,33744
20101115,32682
20101116,32397
20101117,31721
20101118,30698
20101119,31900
20101122,31918
20101124,30934
20101125,30985
20101126,31405
20101129,31235
20101130,31448
20101201,31152
20101202,31513
20101203,31727
20101206,31321
20101207,31092
20101208,31645
20101209,31190
20101210,31032
20101213,30827
20101214,30826
20101215,31132
20101216,30626
20101217,30076
20101220,30108
20101221,29783
20101222,30169
20101224,29813
20101227,29468
20101228,29378
20101229,28834
20101230,28882
20110104,29783
20110105,30196
20110106,30716
20110107,30794
20110111,30282
20110112,30611
20110113,30970
20110114,30814
20110117,30806
20110118,30228
20110119,30180
20110120,30421
20110121,30066
20110124,29583
20110125,29279
20110126,29046
20110127,29018
20110128,29295
20110131,28689
20110201,28518
20110202,28321
20110203,28785
20110204,28773
20110207,28973
20110208,28537
20110209,28324
20110210,27799
20110214,27494
20110215,28216
20110216,28095
20110217,28307
20110218,28429
20110221,28597
20110222,28281
20110223,27489
20110224,26925
20110225,26249
20110228,26580
20110301,27118
20110302,27459
20110303,27252
20110304,27600
20110307,27991
20110308,27899
20110309,28436
20110310,28543
20110311,28212
20110314,27404
20110315,27542
20110316,26562
20110317,26089
20110318,26106
20110322,26543
20110323,26855
20110324,26826
20110325,27025
20110328,27450
20110329,27264
20110330,27707
20110331,28496
20110401,28731
20110404,29352
20110405,29504
20110406,29657
20110407,29879
20110408,29658
20110411,29481
20110412,28926
20110413,28104
20110414,28207
20110415,28100
20110418,27985
20110419,27620
20110420,27288
20110421,27726
20110422,27955
20110425,28027
20110426,27874
20110427,27697
20110428,27595
20110502,26974
20110506,25703
20110509,25776
20110510,26225
20110511,26421
20110512,26656
20110513,26271
20110516,26273
20110517,25826
20110518,25905
20110519,26155
20110520,26285
20110523,26186
20110524,25561
20110525,25746
20110526,25661
20110527,25512
20110530,25646
20110531,25732
20110601,26348
20110602,26100
20110603,25546
20110606,24972
20110607,24636
20110608,24552
20110609,24157
20110610,23894
20110613,23706
20110614,23643
20110615,23793
20110616,23715
20110617,23201
20110620,22806
20110621,22699
20110622,23018
20110623,23184
20110624,23185
20110627,23849
20110628,23775
20110629,23804
20110630,23636
20110701,24067
20110704,24038
20110705,24585
20110706,24488
20110707,24126
20110708,24260
20110711,24271
20110712,23678
20110713,22616
20110714,22883
20110715,23031
20110719,22750
20110720,22869
20110721,22831
20110722,22632
20110725,22997
20110726,22734
20110727,22949
20110728,22852
20110729,22708
20110801,22465
20110802,22542
20110803,22043
20110804,22099
20110805,21862
20110808,20711
20110809,19921
20110810,18790
20110811,19167
20110812,19008
20110815,18925
20110816,19673
20110817,19612
20110818,19587
20110819,19258
20110822,18556
20110823,18293
20110824,18797
20110825,18363
20110826,18750
20110829,18393
20110830,18816
20110831,19138
20110901,19605
20110902,19615
20110905,19178
20110906,18536
20110907,18746
20110908,19058
20110909,18951
20110912,18874
20110913,17943
20110914,17866
20110915,17788
20110916,17857
20110920,17476
20110921,17442
20110922,17298
20110926,16019
20110927,15538
20110928,16349
20110929,16364
20110930,16381
20111003,15929
20111004,15030
20111005,14571
20111006,14573
20111007,15421
20111011,15818
20111012,16335
20111013,16542
20111014,16866
20111017,16572
20111018,16846
20111019,15963
20111020,16082
20111021,15663
20111024,15598
20111025,16344
20111026,16584
20111027,16809
20111028,17608
20111031,18061
20111101,17900
20111102,17391
20111104,17546
20111107,18150
20111108,18004
20111109,17872
20111110,18226
20111111,17195
20111114,17356
20111115,17755
20111116,17600
20111117,17165
20111118,17029
20111121,16561
20111122,16150
20111124,15801
20111125,15953
20111128,15728
20111129,16181
20111130,16364
20111201,15983
20111202,17188
20111205,17304
20111206,17314
20111207,16984
20111208,17240
20111209,17135
20111212,16594
20111213,16649
20111214,16456
20111215,16305
20111216,15941
20111219,16230
20111220,16017
20111221,15917
20111222,16319
20111226,16530
20111227,16538
20111228,16505
20111229,16258
20111230,16088
20120104,16313
20120105,16109
20120106,16275
20120110,16307
20120111,16511
20120112,16656
20120113,16599
20120116,16678
20120117,16409
20120118,17017
20120119,16935
20120120,17257
20120123,17180
20120124,17199
20120125,17368
20120126,17367
20120127,17674
20120130,17436
20120131,16914
20120201,17046
20120202,16973
20120203,17442
20120206,17523
20120207,17365
20120208,17352
20120209,17743
20120210,17893
20120213,17595
20120214,17565
20120215,17749
20120216,18150
20120217,18099
20120220,18435
20120221,18411
20120222,18408
20120223,18730
20120224,18456
20120227,18701
20120228,18322
20120229,18761
20120301,18953
20120302,18567
20120305,18784
20120306,18444
20120307,17745
20120308,17718
20120309,18070
20120312,18370
20120313,18382
20120314,18736
20120315,18655
20120316,18425
20120319,18329
20120321,17869
20120322,17693
20120323,17525
20120326,17358
20120327,17274
20120328,17688
20120329,17458
20120330,17107
20120402,17468
20120403,17169
20120404,17673
20120405,17558
20120406,17449
20120409,17245
20120410,17310
20120411,16910
20120412,16730
20120413,16968
20120416,17370
20120417,17180
20120418,17168
20120419,17418
20120420,17587
20120423,17516
20120424,17091
20120425,17120
20120426,17164
20120427,17249
20120501,17156
20120502,17227
20120507,16960
20120508,16450
20120509,16342
20120510,16052
20120511,16017
20120514,15743
20120515,15484
20120516,15733
20120517,15127
20120518,14978
20120521,14741
20120522,14766
20120523,15069
20120524,14800
20120525,14777
20120528,14778
20120529,14981
20120530,15298
20120531,14991
20120601,14858
20120604,14608
20120605,14217
20120606,14318
20120607,14610
20120608,14709
20120611,14619
20120612,14904
20120613,14885
20120614,14986
20120615,14816
20120618,15079
20120619,15149
20120620,15114
20120621,15226
20120622,14992
20120625,14804
20120626,14519
20120627,14473
20120628,14651
20120629,14389
20120702,14775
20120703,14711
20120704,14936
20120705,14958
20120706,14921
20120709,14848
20120710,14558
20120711,14517
20120712,14517
20120713,14136
20120717,14166
20120718,14444
20120719,14162
20120720,14377
20120723,14379
20120724,13927
20120725,13784
20120726,13738
20120727,13778
20120730,14059
20120731,14178
20120801,14362
20120802,14470
20120803,14203
20120806,14223
20120807,14373
20120808,14461
20120809,14441
20120810,14594
20120813,14413
20120814,14313
20120815,14464
20120816,14334
20120817,14304
20120820,14406
20120821,14339
20120822,14308
20120823,14042
20120824,14196
20120827,14076
20120828,13918
20120829,13891
20120830,13835
20120831,13644
20120903,13546
20120904,13713
20120905,13605
20120906,13413
20120907,13576
20120910,13896
20120911,13903
20120912,13796
20120913,13872
20120914,13898
20120918,14320
20120919,14236
20120920,14309
20120921,14067
20120924,14089
20120925,14022
20120926,14000
20120927,13809
20120928,14009
20121001,14196
20121002,14212
20121003,14253
20121004,14292
20121005,14269
20121009,14108
20121010,14224
20121011,14113
20121012,14268
20121015,14301
20121016,14321
20121017,14340
20121018,14395
20121019,14579
20121022,14571
20121023,14697
20121024,14659
20121025,14589
20121026,14567
20121029,14256
20121030,14373
20121031,14288
20121101,14481
20121102,14654
20121105,14928
20121106,14763
20121107,14715
20121108,14725
20121109,14298
20121112,14204
20121113,14274
20121114,13987
20121115,14298
20121116,14196
20121119,14248
20121120,14292
20121121,14339
20121122,14609
20121126,14821
20121127,14631
20121128,14593
20121129,14432
20121130,14545
20121203,14757